User: anonymous   Login
Location: Unspecified
(0.0000°N, 0.0000°E)
Time: 06:09:39
(UTC+00:00)
Language:

USA 142 - Orbit

View from above orbital plane
View from above orbital plane
View from above satellite
View from above satellite

Ground track
Ground track

The orbit data is extracted from the following two-line orbital elements,

1 25669U 99017A   17285.32997468 0.00000000  00000-0  00000-0 0    08
2 25669  29.2037  77.2660 7090421 186.8633 152.3015  2.32915274    01
Epoch (UTC): 12 October 2017 07:55:09
Eccentricity: 0.7090421
inclination: 29.2037°
perigee height: 616 km
apogee height: 34707 km
right ascension of ascending node: 77.2660°
argument of perigee: 186.8633°
revolutions per day: 2.32915274
mean anomaly at epoch: 152.3015°
orbit number at epoch: 0

The dashed part of the orbit path shows where the satellite is in the earth's shadow,  

DLR